contact:dominique.lefevre@mio.osupytheas.fr, maurice.libes@osupytheas.fr, didier.mallarino@osupytheas.fr
Project:EMSO http://www.emso-fr.org/EMSO-France
Depth: 2436.0 m
Title:EMSO Ligure Ouest : Data MII capteur MICROCAT
DateTime_Computer,Latitude,Longitude,Temperature,Conductivity,Pressure,DateTime_Instrument
DateTime_Computer,Latitude,Longitude,degC,S m-1,dbar,DateTime_Instrument
2023-05-12T00:00:14Z,42.805,6.029,13.3016,4.60087,2470.787,2023-5-12T02:03:25Z
2023-05-12T00:03:17Z,42.805,6.029,13.3021,4.60077,2470.74,2023-5-12T02:06:29Z
2023-05-12T00:06:20Z,42.805,6.029,13.3016,4.60091,2470.81,2023-5-12T02:09:32Z
2023-05-12T00:09:23Z,42.805,6.029,13.3019,4.60077,2470.74,2023-5-12T02:12:35Z
2023-05-12T00:12:26Z,42.805,6.029,13.3016,4.60074,2470.763,2023-5-12T02:15:38Z
2023-05-12T00:15:29Z,42.805,6.029,13.3013,4.60074,2470.763,2023-5-12T02:18:41Z
2023-05-12T00:18:32Z,42.805,6.029,13.3017,4.60074,2470.763,2023-5-12T02:21:44Z
2023-05-12T00:21:35Z,42.805,6.029,13.3015,4.60090,2470.8,2023-5-12T02:24:47Z
2023-05-12T00:24:39Z,42.805,6.029,13.3021,4.60092,2470.787,2023-5-12T02:27:50Z
2023-05-12T00:27:42Z,42.805,6.029,13.3014,4.60079,2470.777,2023-5-12T02:30:53Z
2023-05-12T00:30:45Z,42.805,6.029,13.3016,4.60080,2470.777,2023-5-12T02:33:56Z
2023-05-12T00:33:48Z,42.805,6.029,13.3021,4.60081,2470.763,2023-5-12T02:36:59Z
2023-05-12T00:36:51Z,42.805,6.029,13.3013,4.60078,2470.777,2023-5-12T02:40:02Z
2023-05-12T00:39:54Z,42.805,6.029,13.3015,4.60074,2470.763,2023-5-12T02:43:06Z
2023-05-12T00:42:57Z,42.805,6.029,13.3015,4.60078,2470.763,2023-5-12T02:46:09Z
2023-05-12T00:46:00Z,42.805,6.029,13.3017,4.60085,2470.787,2023-5-12T02:49:12Z
2023-05-12T00:49:03Z,42.805,6.029,13.3015,4.60086,2470.787,2023-5-12T02:52:15Z
2023-05-12T00:52:06Z,42.805,6.029,13.3018,4.60078,2470.763,2023-5-12T02:55:18Z
2023-05-12T00:55:09Z,42.805,6.029,13.3015,4.60076,2470.763,2023-5-12T02:58:21Z
2023-05-12T00:58:12Z,42.805,6.029,13.3016,4.60079,2470.763,2023-5-12T03:01:24Z
2023-05-12T01:01:16Z,42.805,6.029,13.3017,4.60082,2470.763,2023-5-12T03:04:27Z
2023-05-12T01:04:19Z,42.805,6.029,13.3015,4.60092,2470.787,2023-5-12T03:07:30Z
2023-05-12T01:07:22Z,42.805,6.029,13.3020,4.60086,2470.754,2023-5-12T03:10:33Z
2023-05-12T01:10:25Z,42.805,6.029,13.3015,4.60079,2470.777,2023-5-12T03:13:36Z
2023-05-12T01:13:28Z,42.805,6.029,13.3014,4.60088,2470.81,2023-5-12T03:16:39Z
2023-05-12T01:16:31Z,42.805,6.029,13.3016,4.60085,2470.787,2023-5-12T03:19:43Z
2023-05-12T01:19:34Z,42.805,6.029,13.3014,4.60077,2470.763,2023-5-12T03:22:46Z
2023-05-12T01:22:37Z,42.805,6.029,13.3015,4.60079,2470.74,2023-5-12T03:25:49Z
2023-05-12T01:25:40Z,42.805,6.029,13.3015,4.60081,2470.787,2023-5-12T03:28:52Z
2023-05-12T01:28:43Z,42.805,6.029,13.3013,4.60079,2470.787,2023-5-12T03:31:55Z
2023-05-12T01:31:46Z,42.805,6.029,13.3014,4.60080,2470.787,2023-5-12T03:34:58Z
2023-05-12T01:34:49Z,42.805,6.029,13.3015,4.60077,2470.763,2023-5-12T03:38:01Z
2023-05-12T01:37:53Z,42.805,6.029,13.3014,4.60083,2470.787,2023-5-12T03:41:04Z
2023-05-12T01:40:56Z,42.805,6.029,13.3014,4.60076,2470.763,2023-5-12T03:44:07Z
2023-05-12T01:43:59Z,42.805,6.029,13.3017,4.60086,2470.787,2023-5-12T03:47:10Z
2023-05-12T01:47:02Z,42.805,6.029,13.3015,4.60089,2470.763,2023-5-12T03:50:13Z
2023-05-12T01:50:05Z,42.805,6.029,13.3018,4.60084,2470.787,2023-5-12T03:53:16Z
2023-05-12T01:53:08Z,42.805,6.029,13.3018,4.60085,2470.763,2023-5-12T03:56:20Z
2023-05-12T01:56:11Z,42.805,6.029,13.3014,4.60088,2470.75,2023-5-12T03:59:23Z
2023-05-12T01:59:14Z,42.805,6.029,13.3016,4.60085,2470.763,2023-5-12T04:02:26Z
2023-05-12T02:02:17Z,42.805,6.029,13.3015,4.60089,2470.763,2023-5-12T04:05:29Z
2023-05-12T02:05:20Z,42.805,6.029,13.3018,4.60089,2470.74,2023-5-12T04:08:32Z
2023-05-12T02:08:23Z,42.805,6.029,13.3014,4.60094,2470.763,2023-5-12T04:11:35Z
2023-05-12T02:11:26Z,42.805,6.029,13.3016,4.60098,2470.777,2023-5-12T04:14:38Z
2023-05-12T02:14:29Z,42.805,6.029,13.3019,4.60090,2470.777,2023-5-12T04:17:41Z
2023-05-12T02:17:33Z,42.805,6.029,13.3015,4.60084,2470.754,2023-5-12T04:20:44Z
2023-05-12T02:20:36Z,42.805,6.029,13.3017,4.60092,2470.777,2023-5-12T04:23:47Z
2023-05-12T02:23:39Z,42.805,6.029,13.3016,4.60082,2470.754,2023-5-12T04:26:50Z
2023-05-12T02:26:42Z,42.805,6.029,13.3020,4.60094,2470.74,2023-5-12T04:29:53Z
2023-05-12T02:29:45Z,42.805,6.029,13.3015,4.60091,2470.763,2023-5-12T04:32:57Z
2023-05-12T02:32:48Z,42.805,6.029,13.3018,4.60099,2470.74,2023-5-12T04:36:00Z
2023-05-12T02:35:51Z,42.805,6.029,13.3015,4.60104,2470.74,2023-5-12T04:39:03Z
2023-05-12T02:38:54Z,42.805,6.029,13.3020,4.60103,2470.717,2023-5-12T04:42:06Z
2023-05-12T02:41:57Z,42.805,6.029,13.3015,4.60116,2470.754,2023-5-12T04:45:09Z
2023-05-12T02:45:00Z,42.805,6.029,13.3017,4.60107,2470.726,2023-5-12T04:48:12Z
2023-05-12T02:48:03Z,42.805,6.029,13.3019,4.60113,2470.777,2023-5-12T04:51:15Z
2023-05-12T02:51:06Z,42.805,6.029,13.3019,4.60104,2470.763,2023-5-12T04:54:18Z
2023-05-12T02:54:10Z,42.805,6.029,13.3014,4.60104,2470.754,2023-5-12T04:57:21Z
2023-05-12T02:57:13Z,42.805,6.029,13.3014,4.60104,2470.74,2023-5-12T05:00:24Z
2023-05-12T03:00:16Z,42.805,6.029,13.3013,4.60099,2470.754,2023-5-12T05:03:27Z
2023-05-12T03:03:19Z,42.805,6.029,13.3017,4.60090,2470.717,2023-5-12T05:06:30Z
2023-05-12T03:06:22Z,42.805,6.029,13.3014,4.60084,2470.777,2023-5-12T05:09:33Z
2023-05-12T03:09:25Z,42.805,6.029,13.3013,4.60098,2470.74,2023-5-12T05:12:37Z
2023-05-12T03:12:28Z,42.805,6.029,13.3015,4.60090,2470.74,2023-5-12T05:15:40Z
2023-05-12T03:15:31Z,42.805,6.029,13.3015,4.60091,2470.74,2023-5-12T05:18:43Z
2023-05-12T03:18:34Z,42.805,6.029,13.3014,4.60087,2470.73,2023-5-12T05:21:46Z
2023-05-12T03:21:37Z,42.805,6.029,13.3019,4.60086,2470.777,2023-5-12T05:24:49Z
2023-05-12T03:24:40Z,42.805,6.029,13.3016,4.60096,2470.717,2023-5-12T05:27:52Z
2023-05-12T03:27:43Z,42.805,6.029,13.3015,4.60095,2470.726,2023-5-12T05:30:55Z
2023-05-12T03:30:46Z,42.805,6.029,13.3015,4.60084,2470.717,2023-5-12T05:33:58Z
2023-05-12T03:33:50Z,42.805,6.029,13.3020,4.60090,2470.74,2023-5-12T05:37:01Z
2023-05-12T03:36:53Z,42.805,6.029,13.3014,4.60087,2470.754,2023-5-12T05:40:04Z
2023-05-12T03:39:56Z,42.805,6.029,13.3015,4.60081,2470.754,2023-5-12T05:43:07Z
2023-05-12T03:42:59Z,42.805,6.029,13.3017,4.60086,2470.717,2023-5-12T05:46:10Z
2023-05-12T03:46:02Z,42.805,6.029,13.3019,4.60081,2470.693,2023-5-12T05:49:14Z
2023-05-12T03:49:05Z,42.805,6.029,13.3017,4.60078,2470.754,2023-5-12T05:52:17Z
2023-05-12T03:52:08Z,42.805,6.029,13.3018,4.60085,2470.693,2023-5-12T05:55:20Z
2023-05-12T03:55:11Z,42.805,6.029,13.3017,4.60081,2470.707,2023-5-12T05:58:23Z
2023-05-12T03:58:14Z,42.805,6.029,13.3021,4.60079,2470.717,2023-5-12T06:01:26Z
2023-05-12T04:01:17Z,42.805,6.029,13.3019,4.60087,2470.693,2023-5-12T06:04:29Z
2023-05-12T04:04:20Z,42.805,6.029,13.3015,4.60083,2470.73,2023-5-12T06:07:32Z
2023-05-12T04:07:23Z,42.805,6.029,13.3014,4.60084,2470.73,2023-5-12T06:10:35Z
2023-05-12T04:10:27Z,42.805,6.029,13.3018,4.60084,2470.73,2023-5-12T06:13:38Z
2023-05-12T04:13:30Z,42.805,6.029,13.3015,4.60085,2470.717,2023-5-12T06:16:41Z
2023-05-12T04:16:33Z,42.805,6.029,13.3016,4.60100,2470.73,2023-5-12T06:19:44Z
2023-05-12T04:19:36Z,42.805,6.029,13.3016,4.60087,2470.717,2023-5-12T06:22:47Z
2023-05-12T04:22:39Z,42.805,6.029,13.3016,4.60097,2470.693,2023-5-12T06:25:51Z
2023-05-12T04:25:42Z,42.805,6.029,13.3014,4.60089,2470.73,2023-5-12T06:28:54Z
2023-05-12T04:28:45Z,42.805,6.029,13.3019,4.60086,2470.717,2023-5-12T06:31:57Z
2023-05-12T04:31:48Z,42.805,6.029,13.3013,4.60094,2470.684,2023-5-12T06:35:00Z
2023-05-12T04:34:51Z,42.805,6.029,13.3015,4.60092,2470.707,2023-5-12T06:38:03Z
2023-05-12T04:37:54Z,42.805,6.029,13.3014,4.60087,2470.717,2023-5-12T06:41:06Z
2023-05-12T04:40:57Z,42.805,6.029,13.3015,4.60091,2470.693,2023-5-12T06:44:09Z
2023-05-12T04:44:00Z,42.805,6.029,13.3013,4.60089,2470.67,2023-5-12T06:47:12Z
2023-05-12T04:47:04Z,42.805,6.029,13.3014,4.60092,2470.693,2023-5-12T06:50:15Z
2023-05-12T04:50:07Z,42.805,6.029,13.3018,4.60084,2470.684,2023-5-12T06:53:18Z
2023-05-12T04:53:10Z,42.805,6.029,13.3019,4.60086,2470.67,2023-5-12T06:56:21Z
2023-05-12T04:56:13Z,42.805,6.029,13.3015,4.60091,2470.684,2023-5-12T06:59:24Z
2023-05-12T04:59:16Z,42.805,6.029,13.3016,4.60090,2470.693,2023-5-12T07:02:28Z
2023-05-12T05:02:19Z,42.805,6.029,13.3015,4.60092,2470.67,2023-5-12T07:05:31Z
2023-05-12T05:05:22Z,42.805,6.029,13.3017,4.60096,2470.646,2023-5-12T07:08:34Z
2023-05-12T05:08:25Z,42.805,6.029,13.3015,4.60089,2470.67,2023-5-12T07:11:37Z
2023-05-12T05:11:28Z,42.805,6.029,13.3011,4.60091,2470.693,2023-5-12T07:14:40Z
2023-05-12T05:14:31Z,42.805,6.029,13.3014,4.60096,2470.684,2023-5-12T07:17:43Z
2023-05-12T05:17:34Z,42.805,6.029,13.3016,4.60086,2470.693,2023-5-12T07:20:46Z
2023-05-12T05:20:37Z,42.805,6.029,13.3018,4.60099,2470.684,2023-5-12T07:23:49Z
2023-05-12T05:23:41Z,42.805,6.029,13.3012,4.60092,2470.707,2023-5-12T07:26:52Z
2023-05-12T05:26:44Z,42.805,6.029,13.3014,4.60084,2470.684,2023-5-12T07:29:55Z
2023-05-12T05:29:47Z,42.805,6.029,13.3014,4.60082,2470.707,2023-5-12T07:32:58Z
2023-05-12T05:32:50Z,42.805,6.029,13.3019,4.60087,2470.684,2023-5-12T07:36:01Z
2023-05-12T05:35:53Z,42.805,6.029,13.3016,4.60090,2470.693,2023-5-12T07:39:05Z
2023-05-12T05:38:56Z,42.805,6.029,13.3020,4.60095,2470.684,2023-5-12T07:42:08Z
2023-05-12T05:41:59Z,42.805,6.029,13.3015,4.60094,2470.656,2023-5-12T07:45:11Z
2023-05-12T05:45:02Z,42.805,6.029,13.3014,4.60085,2470.693,2023-5-12T07:48:14Z
2023-05-12T05:48:05Z,42.805,6.029,13.3014,4.60081,2470.684,2023-5-12T07:51:17Z
2023-05-12T05:51:08Z,42.805,6.029,13.3014,4.60084,2470.661,2023-5-12T07:54:20Z
2023-05-12T05:54:11Z,42.805,6.029,13.3019,4.60083,2470.67,2023-5-12T07:57:23Z
2023-05-12T05:57:14Z,42.805,6.029,13.3014,4.60085,2470.693,2023-5-12T08:00:26Z
2023-05-12T06:00:18Z,42.805,6.029,13.3018,4.60082,2470.67,2023-5-12T08:03:29Z
2023-05-12T06:03:21Z,42.805,6.029,13.3016,4.60086,2470.684,2023-5-12T08:06:32Z
2023-05-12T06:06:24Z,42.805,6.029,13.3016,4.60087,2470.67,2023-5-12T08:09:35Z
2023-05-12T06:09:27Z,42.805,6.029,13.3021,4.60097,2470.646,2023-5-12T08:12:38Z
2023-05-12T06:12:30Z,42.805,6.029,13.3019,4.60094,2470.67,2023-5-12T08:15:42Z
2023-05-12T06:15:33Z,42.805,6.029,13.3015,4.60091,2470.717,2023-5-12T08:18:45Z
2023-05-12T06:18:36Z,42.805,6.029,13.3018,4.60093,2470.67,2023-5-12T08:21:48Z
2023-05-12T06:21:39Z,42.805,6.029,13.3017,4.60099,2470.67,2023-5-12T08:24:51Z
2023-05-12T06:24:42Z,42.805,6.029,13.3014,4.60086,2470.624,2023-5-12T08:27:54Z
2023-05-12T06:27:45Z,42.805,6.029,13.3018,4.60094,2470.624,2023-5-12T08:30:57Z
2023-05-12T06:30:47Z,42.805,6.029,13.3019,4.60091,2470.661,2023-5-12T08:33:59Z
2023-05-12T06:33:51Z,42.805,6.029,13.3019,4.60093,2470.646,2023-5-12T08:37:02Z
2023-05-12T06:36:54Z,42.805,6.029,13.3015,4.60104,2470.6,2023-5-12T08:40:05Z
2023-05-12T06:39:57Z,42.805,6.029,13.3019,4.60089,2470.67,2023-5-12T08:43:08Z
2023-05-12T06:43:00Z,42.805,6.029,13.3017,4.60092,2470.661,2023-5-12T08:46:11Z
2023-05-12T06:46:03Z,42.805,6.029,13.3017,4.60094,2470.67,2023-5-12T08:49:15Z
2023-05-12T06:49:06Z,42.805,6.029,13.3014,4.60087,2470.646,2023-5-12T08:52:18Z
2023-05-12T06:52:09Z,42.805,6.029,13.3017,4.60085,2470.633,2023-5-12T08:55:21Z
2023-05-12T06:55:12Z,42.805,6.029,13.3014,4.60084,2470.637,2023-5-12T08:58:24Z
2023-05-12T06:58:15Z,42.805,6.029,13.3018,4.60079,2470.637,2023-5-12T09:01:27Z
2023-05-12T07:01:18Z,42.805,6.029,13.3017,4.60078,2470.624,2023-5-12T09:04:30Z
2023-05-12T07:04:21Z,42.805,6.029,13.3014,4.60080,2470.661,2023-5-12T09:07:33Z
2023-05-12T07:07:24Z,42.805,6.029,13.3015,4.60078,2470.624,2023-5-12T09:10:36Z
2023-05-12T07:10:27Z,42.805,6.029,13.3014,4.60078,2470.624,2023-5-12T09:13:39Z
2023-05-12T07:13:31Z,42.805,6.029,13.3018,4.60084,2470.624,2023-5-12T09:16:42Z
2023-05-12T07:16:34Z,42.805,6.029,13.3014,4.60080,2470.624,2023-5-12T09:19:45Z
2023-05-12T07:19:37Z,42.805,6.029,13.3015,4.60078,2470.614,2023-5-12T09:22:48Z
2023-05-12T07:22:40Z,42.805,6.029,13.3015,4.60079,2470.646,2023-5-12T09:25:52Z
2023-05-12T07:25:43Z,42.805,6.029,13.3014,4.60078,2470.637,2023-5-12T09:28:55Z
2023-05-12T07:28:46Z,42.805,6.029,13.3019,4.60078,2470.624,2023-5-12T09:31:58Z
2023-05-12T07:31:49Z,42.805,6.029,13.3015,4.60079,2470.637,2023-5-12T09:35:01Z
2023-05-12T07:34:52Z,42.805,6.029,13.3019,4.60086,2470.624,2023-5-12T09:38:04Z
2023-05-12T07:37:55Z,42.805,6.029,13.3020,4.60081,2470.61,2023-5-12T09:41:07Z
2023-05-12T07:40:58Z,42.805,6.029,13.3018,4.60081,2470.6,2023-5-12T09:44:10Z
2023-05-12T07:44:01Z,42.805,6.029,13.3018,4.60087,2470.6,2023-5-12T09:47:13Z
2023-05-12T07:47:04Z,42.805,6.029,13.3016,4.60079,2470.637,2023-5-12T09:50:16Z
2023-05-12T07:50:08Z,42.805,6.029,13.3019,4.60076,2470.6,2023-5-12T09:53:19Z
2023-05-12T07:53:11Z,42.805,6.029,13.3018,4.60075,2470.624,2023-5-12T09:56:22Z
2023-05-12T07:56:14Z,42.805,6.029,13.3016,4.60075,2470.624,2023-5-12T09:59:25Z
2023-05-12T07:59:17Z,42.805,6.029,13.3017,4.60075,2470.624,2023-5-12T10:02:29Z
2023-05-12T08:02:20Z,42.805,6.029,13.3013,4.60076,2470.6,2023-5-12T10:05:32Z
2023-05-12T08:05:23Z,42.805,6.029,13.3015,4.60074,2470.624,2023-5-12T10:08:35Z
2023-05-12T08:08:26Z,42.805,6.029,13.3015,4.60074,2470.6,2023-5-12T10:11:38Z
2023-05-12T08:11:29Z,42.805,6.029,13.3020,4.60075,2470.637,2023-5-12T10:14:41Z
2023-05-12T08:14:32Z,42.805,6.029,13.3015,4.60074,2470.646,2023-5-12T10:17:44Z
2023-05-12T08:17:35Z,42.805,6.029,13.3020,4.60075,2470.661,2023-5-12T10:20:47Z
2023-05-12T08:20:38Z,42.805,6.029,13.3017,4.60074,2470.624,2023-5-12T10:23:50Z
2023-05-12T08:23:41Z,42.805,6.029,13.3016,4.60074,2470.646,2023-5-12T10:26:53Z
2023-05-12T08:26:45Z,42.805,6.029,13.3016,4.60074,2470.586,2023-5-12T10:29:56Z
2023-05-12T08:29:48Z,42.805,6.029,13.3014,4.60074,2470.624,2023-5-12T10:32:59Z
2023-05-12T08:32:50Z,42.805,6.029,13.3016,4.60074,2470.624,2023-5-12T10:36:02Z
2023-05-12T08:35:53Z,42.805,6.029,13.3018,4.60074,2470.637,2023-5-12T10:39:05Z
2023-05-12T08:38:57Z,42.805,6.029,13.3019,4.60074,2470.6,2023-5-12T10:42:08Z
2023-05-12T08:42:00Z,42.805,6.029,13.3014,4.60074,2470.637,2023-5-12T10:45:11Z
2023-05-12T08:45:03Z,42.805,6.029,13.3015,4.60076,2470.661,2023-5-12T10:48:14Z
2023-05-12T08:48:06Z,42.805,6.029,13.3017,4.60076,2470.624,2023-5-12T10:51:18Z
2023-05-12T08:51:09Z,42.805,6.029,13.3015,4.60074,2470.637,2023-5-12T10:54:21Z
2023-05-12T08:54:12Z,42.805,6.029,13.3014,4.60074,2470.646,2023-5-12T10:57:24Z
2023-05-12T08:57:15Z,42.805,6.029,13.3014,4.60074,2470.661,2023-5-12T11:00:27Z
2023-05-12T09:00:18Z,42.805,6.029,13.3016,4.60073,2470.624,2023-5-12T11:03:30Z
2023-05-12T09:03:21Z,42.805,6.029,13.3015,4.60073,2470.614,2023-5-12T11:06:33Z
2023-05-12T09:06:24Z,42.805,6.029,13.3019,4.60077,2470.646,2023-5-12T11:09:36Z
2023-05-12T09:09:27Z,42.805,6.029,13.3017,4.60073,2470.624,2023-5-12T11:12:39Z
2023-05-12T09:12:30Z,42.805,6.029,13.3015,4.60075,2470.614,2023-5-12T11:15:42Z
2023-05-12T09:15:34Z,42.805,6.029,13.3017,4.60074,2470.646,2023-5-12T11:18:45Z
2023-05-12T09:18:37Z,42.805,6.029,13.3017,4.60076,2470.624,2023-5-12T11:21:48Z
2023-05-12T09:21:40Z,42.805,6.029,13.3019,4.60077,2470.6,2023-5-12T11:24:52Z
2023-05-12T09:24:43Z,42.805,6.029,13.3019,4.60079,2470.637,2023-5-12T11:27:55Z
2023-05-12T09:27:46Z,42.805,6.029,13.3016,4.60074,2470.624,2023-5-12T11:30:58Z
2023-05-12T09:30:49Z,42.805,6.029,13.3017,4.60073,2470.646,2023-5-12T11:34:01Z
2023-05-12T09:33:52Z,42.805,6.029,13.3014,4.60073,2470.646,2023-5-12T11:37:04Z
2023-05-12T09:36:55Z,42.805,6.029,13.3019,4.60072,2470.67,2023-5-12T11:40:07Z
2023-05-12T09:39:58Z,42.805,6.029,13.3018,4.60076,2470.624,2023-5-12T11:43:10Z
2023-05-12T09:43:01Z,42.805,6.029,13.3019,4.60077,2470.624,2023-5-12T11:46:13Z
2023-05-12T09:46:04Z,42.805,6.029,13.3015,4.60076,2470.646,2023-5-12T11:49:16Z
2023-05-12T09:49:08Z,42.805,6.029,13.3013,4.60079,2470.624,2023-5-12T11:52:19Z
2023-05-12T09:52:11Z,42.805,6.029,13.3016,4.60074,2470.637,2023-5-12T11:55:22Z
2023-05-12T09:55:14Z,42.805,6.029,13.3016,4.60077,2470.661,2023-5-12T11:58:25Z
2023-05-12T09:58:17Z,42.805,6.029,13.3017,4.60080,2470.646,2023-5-12T12:01:29Z
2023-05-12T10:01:20Z,42.805,6.029,13.3014,4.60075,2470.67,2023-5-12T12:04:32Z
2023-05-12T10:04:23Z,42.805,6.029,13.3016,4.60075,2470.646,2023-5-12T12:07:35Z
2023-05-12T10:07:26Z,42.805,6.029,13.3021,4.60074,2470.67,2023-5-12T12:10:38Z
2023-05-12T10:10:29Z,42.805,6.029,13.3016,4.60074,2470.646,2023-5-12T12:13:41Z
2023-05-12T10:13:32Z,42.805,6.029,13.3018,4.60075,2470.661,2023-5-12T12:16:44Z
2023-05-12T10:16:35Z,42.805,6.029,13.3014,4.60073,2470.646,2023-5-12T12:19:47Z
2023-05-12T10:19:38Z,42.805,6.029,13.3015,4.60074,2470.684,2023-5-12T12:22:50Z
2023-05-12T10:22:41Z,42.805,6.029,13.3018,4.60073,2470.646,2023-5-12T12:25:53Z
2023-05-12T10:25:45Z,42.805,6.029,13.3015,4.60074,2470.67,2023-5-12T12:28:56Z
2023-05-12T10:28:48Z,42.805,6.029,13.3017,4.60078,2470.67,2023-5-12T12:31:59Z
2023-05-12T10:31:51Z,42.805,6.029,13.3015,4.60074,2470.67,2023-5-12T12:35:03Z
2023-05-12T10:34:54Z,42.805,6.029,13.3013,4.60074,2470.67,2023-5-12T12:38:06Z
2023-05-12T10:37:57Z,42.805,6.029,13.3014,4.60074,2470.661,2023-5-12T12:41:09Z
2023-05-12T10:41:00Z,42.805,6.029,13.3015,4.60074,2470.67,2023-5-12T12:44:12Z
2023-05-12T10:44:03Z,42.805,6.029,13.3015,4.60074,2470.67,2023-5-12T12:47:15Z
2023-05-12T10:47:06Z,42.805,6.029,13.3018,4.60075,2470.646,2023-5-12T12:50:18Z
2023-05-12T10:50:09Z,42.805,6.029,13.3014,4.60074,2470.67,2023-5-12T12:53:21Z
2023-05-12T10:53:12Z,42.805,6.029,13.3013,4.60072,2470.637,2023-5-12T12:56:24Z
2023-05-12T10:56:15Z,42.805,6.029,13.3013,4.60074,2470.67,2023-5-12T12:59:27Z
2023-05-12T10:59:19Z,42.805,6.029,13.3017,4.60074,2470.646,2023-5-12T13:02:30Z
2023-05-12T11:02:22Z,42.805,6.029,13.3015,4.60074,2470.646,2023-5-12T13:05:33Z
2023-05-12T11:05:25Z,42.805,6.029,13.3017,4.60073,2470.646,2023-5-12T13:08:37Z
2023-05-12T11:08:28Z,42.805,6.029,13.3018,4.60074,2470.67,2023-5-12T13:11:40Z
2023-05-12T11:11:31Z,42.805,6.029,13.3015,4.60072,2470.624,2023-5-12T13:14:43Z
2023-05-12T11:14:34Z,42.805,6.029,13.3015,4.60076,2470.646,2023-5-12T13:17:46Z
2023-05-12T11:17:37Z,42.805,6.029,13.3015,4.60074,2470.661,2023-5-12T13:20:49Z
2023-05-12T11:20:40Z,42.805,6.029,13.3018,4.60077,2470.646,2023-5-12T13:23:52Z
2023-05-12T11:23:43Z,42.805,6.029,13.3013,4.60074,2470.637,2023-5-12T13:26:55Z
2023-05-12T11:26:46Z,42.805,6.029,13.3014,4.60073,2470.684,2023-5-12T13:29:58Z
2023-05-12T11:29:49Z,42.805,6.029,13.3017,4.60072,2470.646,2023-5-12T13:33:01Z
2023-05-12T11:32:52Z,42.805,6.029,13.3019,4.60080,2470.661,2023-5-12T13:36:04Z
2023-05-12T11:35:56Z,42.805,6.029,13.3014,4.60078,2470.624,2023-5-12T13:39:07Z
2023-05-12T11:38:59Z,42.805,6.029,13.3016,4.60075,2470.646,2023-5-12T13:42:10Z
2023-05-12T11:42:02Z,42.805,6.029,13.3021,4.60073,2470.646,2023-5-12T13:45:14Z
2023-05-12T11:45:05Z,42.805,6.029,13.3014,4.60075,2470.67,2023-5-12T13:48:17Z
2023-05-12T11:48:08Z,42.805,6.029,13.3014,4.60074,2470.661,2023-5-12T13:51:20Z
2023-05-12T11:51:11Z,42.805,6.029,13.3019,4.60073,2470.661,2023-5-12T13:54:23Z
2023-05-12T11:54:14Z,42.805,6.029,13.3015,4.60075,2470.646,2023-5-12T13:57:26Z
2023-05-12T11:57:17Z,42.805,6.029,13.3019,4.60072,2470.646,2023-5-12T14:00:29Z
2023-05-12T12:00:20Z,42.805,6.029,13.3018,4.60076,2470.661,2023-5-12T14:03:32Z
2023-05-12T12:03:23Z,42.805,6.029,13.3015,4.60075,2470.661,2023-5-12T14:06:35Z
2023-05-12T12:06:26Z,42.805,6.029,13.3017,4.60073,2470.67,2023-5-12T14:09:38Z
2023-05-12T12:09:29Z,42.805,6.029,13.3013,4.60075,2470.646,2023-5-12T14:12:41Z
2023-05-12T12:12:33Z,42.805,6.029,13.3015,4.60075,2470.67,2023-5-12T14:15:44Z
2023-05-12T12:15:36Z,42.805,6.029,13.3018,4.60074,2470.661,2023-5-12T14:18:48Z
2023-05-12T12:18:39Z,42.805,6.029,13.3018,4.60072,2470.661,2023-5-12T14:21:51Z
2023-05-12T12:21:42Z,42.805,6.029,13.3015,4.60074,2470.646,2023-5-12T14:24:54Z
2023-05-12T12:24:45Z,42.805,6.029,13.3019,4.60078,2470.67,2023-5-12T14:27:57Z
2023-05-12T12:27:48Z,42.805,6.029,13.3019,4.60072,2470.717,2023-5-12T14:31:00Z
2023-05-12T12:30:51Z,42.805,6.029,13.3015,4.60080,2470.646,2023-5-12T14:34:03Z
2023-05-12T12:33:54Z,42.805,6.029,13.3015,4.60074,2470.67,2023-5-12T14:37:06Z
2023-05-12T12:36:57Z,42.805,6.029,13.3019,4.60079,2470.693,2023-5-12T14:40:09Z
2023-05-12T12:40:00Z,42.805,6.029,13.3016,4.60074,2470.646,2023-5-12T14:43:12Z
2023-05-12T12:43:03Z,42.805,6.029,13.3015,4.60074,2470.67,2023-5-12T14:46:15Z
2023-05-12T12:46:06Z,42.805,6.029,13.3015,4.60076,2470.661,2023-5-12T14:49:18Z
2023-05-12T12:49:10Z,42.805,6.029,13.3015,4.60079,2470.661,2023-5-12T14:52:21Z
2023-05-12T12:52:13Z,42.805,6.029,13.3015,4.60071,2470.646,2023-5-12T14:55:25Z
2023-05-12T12:55:16Z,42.805,6.029,13.3016,4.60074,2470.646,2023-5-12T14:58:28Z
2023-05-12T12:58:19Z,42.805,6.029,13.3015,4.60072,2470.684,2023-5-12T15:01:31Z
2023-05-12T13:01:22Z,42.805,6.029,13.3015,4.60074,2470.646,2023-5-12T15:04:34Z
2023-05-12T13:04:25Z,42.805,6.029,13.3015,4.60070,2470.646,2023-5-12T15:07:37Z
2023-05-12T13:07:28Z,42.805,6.029,13.3013,4.60077,2470.661,2023-5-12T15:10:40Z
2023-05-12T13:10:31Z,42.805,6.029,13.3015,4.60081,2470.693,2023-5-12T15:13:43Z
2023-05-12T13:13:34Z,42.805,6.029,13.3016,4.60079,2470.646,2023-5-12T15:16:46Z
2023-05-12T13:16:37Z,42.805,6.029,13.3018,4.60076,2470.646,2023-5-12T15:19:49Z
2023-05-12T13:19:40Z,42.805,6.029,13.3016,4.60075,2470.646,2023-5-12T15:22:52Z
2023-05-12T13:22:44Z,42.805,6.029,13.3013,4.60076,2470.661,2023-5-12T15:25:55Z
2023-05-12T13:25:47Z,42.805,6.029,13.3020,4.60078,2470.661,2023-5-12T15:28:59Z
2023-05-12T13:28:50Z,42.805,6.029,13.3015,4.60076,2470.684,2023-5-12T15:32:02Z
2023-05-12T13:31:53Z,42.805,6.029,13.3016,4.60074,2470.684,2023-5-12T15:35:05Z
2023-05-12T13:34:56Z,42.805,6.029,13.3017,4.60074,2470.67,2023-5-12T15:38:08Z
2023-05-12T13:37:59Z,42.805,6.029,13.3017,4.60080,2470.661,2023-5-12T15:41:11Z
2023-05-12T13:41:02Z,42.805,6.029,13.3015,4.60077,2470.67,2023-5-12T15:44:14Z
2023-05-12T13:44:05Z,42.805,6.029,13.3015,4.60079,2470.646,2023-5-12T15:47:17Z
2023-05-12T13:47:08Z,42.805,6.029,13.3015,4.60076,2470.646,2023-5-12T15:50:20Z
2023-05-12T13:50:11Z,42.805,6.029,13.3016,4.60076,2470.661,2023-5-12T15:53:23Z
2023-05-12T13:53:14Z,42.805,6.029,13.3015,4.60071,2470.67,2023-5-12T15:56:26Z
2023-05-12T13:56:18Z,42.805,6.029,13.3017,4.60071,2470.67,2023-5-12T15:59:29Z
2023-05-12T13:59:21Z,42.805,6.029,13.3012,4.60077,2470.633,2023-5-12T16:02:32Z
2023-05-12T14:02:24Z,42.805,6.029,13.3015,4.60072,2470.637,2023-5-12T16:05:36Z
2023-05-12T14:05:27Z,42.805,6.029,13.3015,4.60072,2470.637,2023-5-12T16:08:39Z
2023-05-12T14:08:30Z,42.805,6.029,13.3013,4.60072,2470.646,2023-5-12T16:11:42Z
2023-05-12T14:11:33Z,42.805,6.029,13.3014,4.60074,2470.646,2023-5-12T16:14:45Z
2023-05-12T14:14:36Z,42.805,6.029,13.3014,4.60073,2470.646,2023-5-12T16:17:48Z
2023-05-12T14:17:39Z,42.805,6.029,13.3012,4.60075,2470.67,2023-5-12T16:20:51Z
2023-05-12T14:20:42Z,42.805,6.029,13.3014,4.60070,2470.637,2023-5-12T16:23:54Z
2023-05-12T14:23:45Z,42.805,6.029,13.3020,4.60074,2470.646,2023-5-12T16:26:57Z
2023-05-12T14:26:48Z,42.805,6.029,13.3020,4.60079,2470.684,2023-5-12T16:30:00Z
2023-05-12T14:29:51Z,42.805,6.029,13.3015,4.60076,2470.646,2023-5-12T16:33:03Z
2023-05-12T14:32:55Z,42.805,6.029,13.3019,4.60072,2470.646,2023-5-12T16:36:07Z
2023-05-12T14:35:58Z,42.805,6.029,13.3015,4.60076,2470.646,2023-5-12T16:39:10Z
2023-05-12T14:39:01Z,42.805,6.029,13.3015,4.60079,2470.661,2023-5-12T16:42:13Z
2023-05-12T14:42:04Z,42.805,6.029,13.3015,4.60076,2470.661,2023-5-12T16:45:16Z
2023-05-12T14:45:07Z,42.805,6.029,13.3014,4.60076,2470.646,2023-5-12T16:48:19Z
2023-05-12T14:48:10Z,42.805,6.029,13.3017,4.60072,2470.614,2023-5-12T16:51:22Z
2023-05-12T14:51:13Z,42.805,6.029,13.3014,4.60079,2470.67,2023-5-12T16:54:25Z
2023-05-12T14:54:16Z,42.805,6.029,13.3014,4.60073,2470.646,2023-5-12T16:57:28Z
2023-05-12T14:57:20Z,42.805,6.029,13.3015,4.60073,2470.646,2023-5-12T17:00:31Z
2023-05-12T15:00:23Z,42.805,6.029,13.3015,4.60078,2470.633,2023-5-12T17:03:35Z
2023-05-12T15:03:26Z,42.805,6.029,13.3016,4.60079,2470.646,2023-5-12T17:06:38Z
2023-05-12T15:06:29Z,42.805,6.029,13.3014,4.60076,2470.646,2023-5-12T17:09:41Z
2023-05-12T15:09:32Z,42.805,6.029,13.3015,4.60077,2470.633,2023-5-12T17:12:44Z